Weather History for Evergreen, AL

Change the Weather History Date:

Saturday, March 29, 2014

  Actual Average (KPRN) Record (KPRN)
Temperature  
Mean Temperature 62 °F -  
Max Temperature 73 °F 74 °F 86 °F (1985)
Min Temperature 52 °F 51 °F 30 °F (1955)
Degree Days  
Heating Degree Days 2    
Growing Degree Days 12 (Base 50)    
Moisture  
Dew Point 54 °F    
Average Humidity 77    
Maximum Humidity 93    
Minimum Humidity 46    
Precipitation  
Precipitation 0.40 in - - ()
Sea Level Pressure  
Sea Level Pressure 29.96 in    
Wind  
Wind Speed 8 mph (WSW)    
Max Wind Speed 16 mph    
Max Gust Speed 28 mph    
Visibility 9 miles    
Events Rain , Thunderstorm    
Averages and records for this station are not official NWS values.
T = Trace of Precipitation, MM = Missing Value Source: NWS Daily Summary

Daily Weather History Graph

Daily Weather History Graph

Search for Another Location

Airport:

Trip Planner

Search our weather history database for the weather conditions in past years. The results will help you decide how hot, cold, wet, or windy it might be!

Date:

Astronomy

Mar. 29, 2014 Rise Set
Actual Time 6:40 AM CDT 7:05 PM CDT
Civil Twilight 6:16 AM CDT 7:30 PM CDT
Nautical Twilight 5:47 AM CDT 7:58 PM CDT
Astronomical Twilight 5:18 AM CDT 8:27 PM CDT
Moon 5:44 AM CDT (3/29) 6:12 PM CDT (3/29)
Length of Visible Light 13h 13m
Length of Day
12h 25m
Waning Crescent, 2% of the Moon is Illuminated
Mar 29
Waning Crescent
Mar 30
New
Apr 7
First Quarter
Apr 15
Full
Apr 22
Last Quarter

Hourly Weather History & Observations

Time (CDT) Temp. Dew Point Humidity Pressure Visibility Wind Dir Wind Speed Gust Speed Precip Events Conditions
12:53 AM 59.0 °F 57.0 °F 93% 29.92 in 7.0 mi NE 3.5 mph - N/A   Overcast
1:18 AM 59.0 °F 55.9 °F 90% 29.91 in 10.0 mi Calm Calm - N/A   Overcast
1:53 AM 59.0 °F 55.9 °F 90% 29.88 in 10.0 mi East 5.8 mph - N/A   Overcast
2:20 AM 59.0 °F 57.0 °F 93% 29.90 in 9.0 mi WSW 3.5 mph - 0.01 in Rain , Thunderstorm Light Rain
2:53 AM 59.0 °F 55.9 °F 90% 29.94 in 7.0 mi SW 16.1 mph 20.7 mph 0.02 in Rain , Thunderstorm Light Rain
2:58 AM 59.0 °F 57.0 °F 93% 29.94 in 2.5 mi SSW 9.2 mph 20.7 mph 0.11 in Rain , Thunderstorm Heavy Thunderstorms and Rain
3:00 AM 59.0 °F 57.0 °F 93% 29.96 in 1.8 mi WSW 10.4 mph 20.7 mph 0.16 in Rain , Thunderstorm Heavy Thunderstorms and Rain
3:11 AM 60.1 °F 57.0 °F 90% 29.96 in 2.0 mi SW 9.2 mph - 0.24 in Rain , Thunderstorm Heavy Thunderstorms and Rain
3:14 AM 60.1 °F 57.0 °F 90% 29.95 in 3.0 mi SW 8.1 mph - 0.24 in Rain , Thunderstorm Rain
3:30 AM 60.1 °F 57.0 °F 90% 29.95 in 10.0 mi South 8.1 mph - 0.25 in Rain Light Rain
3:53 AM 60.1 °F 57.0 °F 90% 29.92 in 7.0 mi SSE 9.2 mph - 0.27 in Rain Light Rain
4:07 AM 60.1 °F 57.0 °F 90% 29.93 in 10.0 mi South 9.2 mph - 0.00 in   Overcast
4:53 AM 60.1 °F 57.0 °F 90% 29.86 in 5.0 mi South 16.1 mph 23.0 mph 0.09 in Rain Heavy Rain
5:10 AM 60.1 °F 57.0 °F 90% 29.87 in 10.0 mi South 13.8 mph - 0.01 in Rain Light Rain
5:20 AM 60.1 °F 57.0 °F 90% 29.83 in 9.0 mi SE 11.5 mph - 0.02 in Rain , Thunderstorm Light Thunderstorms and Rain
5:32 AM 60.1 °F 57.0 °F 90% 29.88 in 10.0 mi South 10.4 mph - 0.02 in Rain Light Rain
5:53 AM 60.1 °F 57.0 °F 90% 29.88 in 10.0 mi South 6.9 mph - 0.02 in   Mostly Cloudy
6:18 AM 60.1 °F 57.0 °F 90% 29.91 in 10.0 mi Calm Calm - N/A   Mostly Cloudy
6:53 AM 60.1 °F 57.0 °F 90% 29.93 in 10.0 mi SW 6.9 mph - N/A   Scattered Clouds
7:53 AM 62.1 °F 57.9 °F 86% 29.92 in 10.0 mi SW 11.5 mph - N/A   Clear
8:11 AM 62.1 °F 57.9 °F 86% 29.94 in 10.0 mi WSW 12.7 mph - N/A   Scattered Clouds
8:53 AM 64.0 °F 57.9 °F 80% 29.94 in 10.0 mi West 10.4 mph 17.3 mph N/A   Clear
9:23 AM 64.9 °F 55.9 °F 73% 29.95 in 10.0 mi West 13.8 mph 25.3 mph N/A   Mostly Cloudy
9:53 AM 64.9 °F 55.0 °F 70% 29.95 in 10.0 mi West 9.2 mph 19.6 mph N/A   Overcast
10:53 AM 66.0 °F 55.9 °F 70% 29.96 in 10.0 mi Variable 6.9 mph - N/A   Overcast
11:53 AM 66.9 °F 55.9 °F 68% 29.98 in 10.0 mi Variable 5.8 mph 16.1 mph N/A   Overcast
12:53 PM 70.0 °F 55.9 °F 61% 29.97 in 10.0 mi WNW 9.2 mph - N/A   Overcast
1:53 PM 72.0 °F 57.0 °F 59% 29.96 in 10.0 mi West 9.2 mph - N/A   Mostly Cloudy
2:53 PM 72.0 °F 52.0 °F 49% 29.96 in 10.0 mi NW 11.5 mph 21.9 mph N/A   Mostly Cloudy
3:53 PM 70.0 °F 48.0 °F 46% 29.98 in 10.0 mi NNW 13.8 mph 24.2 mph N/A   Clear
4:53 PM 68.0 °F 46.9 °F 47% 30.00 in 10.0 mi North 11.5 mph 27.6 mph N/A   Scattered Clouds
5:53 PM 66.0 °F 45.0 °F 47% 30.01 in 10.0 mi NNW 10.4 mph 21.9 mph N/A   Clear
6:53 PM 63.0 °F 44.1 °F 50% 30.04 in 10.0 mi NNW 9.2 mph - N/A   Clear
7:53 PM 59.0 °F 45.0 °F 60% 30.07 in 10.0 mi North 5.8 mph - N/A   Clear
8:53 PM 57.9 °F 44.1 °F 60% 30.10 in 10.0 mi NNW 10.4 mph 21.9 mph N/A   Clear
9:53 PM 55.9 °F 42.1 °F 60% 30.14 in 10.0 mi NNW 11.5 mph 23.0 mph N/A   Clear
10:53 PM 53.1 °F 41.0 °F 64% 30.16 in 10.0 mi North 5.8 mph - N/A   Clear
11:53 PM 52.0 °F 39.9 °F 63% 30.18 in 10.0 mi NNW 6.9 mph - N/A   Clear